| time (UTC) | temp F | wind direction | speed knots | gust knots | rain 1hr in | rain 24hr in | rain mn in | humidity % | barometer mb |
| 20260906171726 | 83 | 132 | 4.3 | 11.3 | 0.00 | 0.00 | 0.00 | 77 | 1015.0 |
| 20260906170226 | 83 | 113 | 5.2 | 13.0 | 0.00 | 0.00 | 0.00 | 77 | 1014.9 |
| 20260906164726 | 82 | 148 | 1.7 | 11.3 | 0.00 | 0.00 | 0.00 | 79 | 1015.1 |
| 20260906163226 | 82 | 143 | 1.7 | 11.3 | 0.00 | 0.00 | 0.00 | 79 | 1014.8 |
| 20260906161726 | 82 | 91 | 7.0 | 11.3 | 0.00 | 0.00 | 0.00 | 80 | 1015.0 |
| 20260906160226 | 81 | 86 | 10.4 | 11.3 | 0.00 | 0.00 | 0.00 | 80 | 1015.1 |
| 20260906154726 | 80 | 63 | 3.5 | 13.0 | 0.00 | 0.00 | 0.00 | 83 | 1015.3 |
| 20260906153226 | 79 | 119 | 3.5 | 10.4 | 0.00 | 0.00 | 0.00 | 83 | 1015.4 |
| 20260906151726 | 78 | 140 | 1.7 | 9.6 | 0.00 | 0.00 | 0.00 | 85 | 1015.3 |
| 20260906150226 | 77 | 109 | 1.7 | 7.0 | 0.00 | 0.00 | 0.00 | 86 | 1015.4 |
| 20260906144726 | 77 | 99 | 4.3 | 7.0 | 0.00 | 0.00 | 0.00 | 88 | 1015.3 |
| 20260906143226 | 76 | 107 | 2.6 | 7.8 | 0.00 | 0.00 | 0.00 | 89 | 1015.5 |
| 20260906141726 | 76 | 127 | 3.5 | 7.8 | 0.00 | 0.00 | 0.00 | 88 | 1015.7 |
| 20260906140226 | 75 | 96 | 2.6 | 8.7 | 0.00 | 0.00 | 0.00 | 89 | 1015.7 |
| 20260906134726 | 76 | 129 | 4.3 | 9.6 | 0.00 | 0.00 | 0.00 | 87 | 1015.5 |
| 20260906133226 | 75 | 220 | 2.6 | 9.6 | 0.00 | 0.00 | 0.00 | 89 | 1015.5 |
| 20260906131726 | 75 | 110 | 6.1 | 8.7 | 0.00 | 0.00 | 0.00 | 89 | 1015.4 |
| 20260906130226 | 74 | 99 | 2.6 | 6.1 | 0.00 | 0.00 | 0.00 | 91 | 1015.5 |
| 20260906124726 | 74 | 150 | 1.7 | 6.1 | 0.00 | 0.00 | 0.00 | 91 | 1015.4 |
| 20260906123226 | 73 | 98 | 3.5 | 5.2 | 0.00 | 0.00 | 0.00 | 92 | 1015.0 |
| 20260906121726 | 73 | 110 | 4.3 | 6.1 | 0.00 | 0.00 | 0.00 | 92 | 1014.8 |
| 20260906120226 | 73 | 94 | 4.3 | 9.6 | 0.00 | 0.00 | 0.00 | 91 | 1014.7 |
| 20260906114726 | 73 | 94 | 4.3 | 6.1 | 0.00 | 0.00 | 0.00 | 91 | 1014.5 |
| 20260906113226 | 73 | 93 | 2.6 | 7.0 | 0.00 | 0.00 | 0.00 | 91 | 1014.4 |
| 20260906111726 | 74 | 125 | 7.0 | 9.6 | 0.00 | 0.00 | 0.00 | 91 | 1014.2 |
| 20260906110226 | 74 | 95 | 8.7 | 8.7 | 0.00 | 0.00 | 0.00 | 90 | 1014.3 |
| 20260906104726 | 74 | 110 | 7.0 | 10.4 | 0.00 | 0.00 | 0.00 | 90 | 1014.2 |
| 20260906103226 | 74 | 109 | 3.5 | 4.3 | 0.00 | 0.00 | 0.00 | 90 | 1014.6 |
| 20260906101726 | 74 | 96 | 3.5 | 7.8 | 0.00 | 0.00 | 0.00 | 90 | 1014.6 |
| 20260906100226 | 74 | 97 | 5.2 | 10.4 | 0.00 | 0.00 | 0.00 | 90 | 1014.4 |
| 20260906094726 | 75 | 91 | 4.3 | 12.2 | 0.00 | 0.00 | 0.00 | 90 | 1014.5 |
| 20260906093226 | 75 | 103 | 7.8 | 9.6 | 0.00 | 0.00 | 0.00 | 90 | 1014.2 |
| 20260906092426 | 75 | 99 | 0.0 | 0.9 | 0.00 | 0.00 | 0.00 | 90 | 1014.2 |
| 20260906091625 | 75 | 104 | 0.0 | 0.9 | 0.00 | 0.00 | 0.00 | 91 | 1014.1 |
| 20260906091225 | 75 | 102 | 0.0 | 0.0 | 0.00 | 0.00 | 0.00 | 91 | 1014.1 |
| 20260906090825 | 75 | 108 | 0.0 | 0.0 | 0.00 | 0.00 | 0.00 | 90 | 1014.1 |
| 20260906090625 | 75 | 91 | 0.0 | 0.0 | 0.00 | 0.00 | 0.00 | 90 | 1014.0 |
| 20260906090425 | 75 | 91 | 0.0 | 0.0 | 0.00 | 0.00 | 0.00 | 90 | 1014.1 |
| 20260906090325 | 75 | 127 | 0.0 | 0.0 | 0.00 | 0.00 | 0.00 | 90 | 1014.1 |
| 20260906090226 | 0 | 146 | 451.9 | 0.0 | 0.00 | 0.00 | 0.00 | ||
| 20260906084725 | 76 | 89 | 0.0 | 1.7 | 0.00 | 0.00 | 0.00 | 90 | 1013.8 |
| 20260906083225 | 76 | 103 | 0.0 | 7.8 | 0.00 | 0.00 | 0.00 | 91 | 1013.7 |
| 20260906081725 | 76 | 110 | 2.6 | 8.7 | 0.00 | 0.00 | 0.00 | 91 | 1013.8 |
| 20260906080225 | 76 | 65 | 3.5 | 9.6 | 0.00 | 0.00 | 0.00 | 91 | 1013.8 |
| 20260906074725 | 76 | 113 | 0.0 | 7.8 | 0.00 | 0.00 | 0.00 | 91 | 1013.7 |
| 20260906073225 | 76 | 88 | 1.7 | 9.6 | 0.00 | 0.00 | 0.00 | 91 | 1013.7 |
| 20260906071725 | 77 | 102 | 3.5 | 10.4 | 0.00 | 0.00 | 0.00 | 91 | 1013.8 |
| 20260906070225 | 77 | 101 | 4.3 | 7.0 | 0.00 | 0.00 | 0.00 | 92 | 1013.8 |
| 20260906064725 | 78 | 89 | 3.5 | 6.1 | 0.00 | 0.00 | 0.00 | 92 | 1013.6 |
| 20260906063225 | 78 | 84 | 4.3 | 7.0 | 0.00 | 0.00 | 0.00 | 92 | 1013.8 |
| 20260906061725 | 78 | 111 | 2.6 | 7.0 | 0.00 | 0.00 | 0.00 | 92 | 1013.9 |
| 20260906060225 | 79 | 99 | 1.7 | 7.0 | 0.00 | 0.00 | 0.00 | 91 | 1013.7 |
| 20260906054725 | 79 | 68 | 4.3 | 7.8 | 0.00 | 0.00 | 0.00 | 91 | 1013.7 |
| 20260906053225 | 79 | 108 | 1.7 | 6.1 | 0.00 | 0.00 | 0.00 | 90 | 1013.8 |
| 20260906051725 | 80 | 111 | 2.6 | 5.2 | 0.00 | 0.00 | 0.00 | 89 | 1013.7 |
| 20260906050225 | 80 | 91 | 0.0 | 5.2 | 0.00 | 0.00 | 0.00 | 89 | 1013.9 |
| 20260906044725 | 80 | 79 | 1.7 | 5.2 | 0.00 | 0.00 | 0.00 | 88 | 1013.6 |
| 20260906043225 | 81 | 91 | 0.9 | 4.3 | 0.00 | 0.00 | 0.00 | 87 | 1013.6 |
| 20260906041725 | 81 | 81 | 1.7 | 7.0 | 0.00 | 0.00 | 0.00 | 86 | 1013.3 |
| 20260906040225 | 82 | 94 | 2.6 | 5.2 | 0.00 | 0.00 | 0.00 | 85 | 1013.3 |
| 20260906034725 | 82 | 100 | 0.9 | 5.2 | 0.00 | 0.00 | 0.00 | 85 | 1013.2 |
| 20260906033225 | 82 | 75 | 0.0 | 5.2 | 0.00 | 0.00 | 0.00 | 84 | 1013.3 |
| 20260906031725 | 82 | 63 | 0.9 | 3.5 | 0.00 | 0.00 | 0.00 | 83 | 1013.3 |
| 20260906030225 | 83 | 78 | 0.0 | 2.6 | 0.00 | 0.00 | 0.00 | 81 | 1013.2 |
| 20260906024725 | 83 | 81 | 0.0 | 2.6 | 0.00 | 0.00 | 0.00 | 81 | 1012.9 |
| 20260906023225 | 83 | 77 | 0.0 | 1.7 | 0.00 | 0.00 | 0.00 | 80 | 1012.9 |
| 20260906021725 | 84 | 94 | 1.7 | 3.5 | 0.00 | 0.00 | 0.00 | 79 | 1012.6 |
| 20260906020225 | 84 | 98 | 0.9 | 3.5 | 0.00 | 0.00 | 0.00 | 79 | 1012.3 |
| 20260906014725 | 84 | 91 | 0.9 | 3.5 | 0.00 | 0.00 | 0.00 | 78 | 1012.1 |
| 20260906013225 | 85 | 106 | 0.0 | 5.2 | 0.00 | 0.00 | 0.00 | 78 | 1012.0 |
| 20260906011725 | 85 | 48 | 2.6 | 6.1 | 0.00 | 0.00 | 0.00 | 77 | 1012.0 |
| 20260906010225 | 85 | 68 | 3.5 | 6.1 | 0.00 | 0.00 | 0.00 | 76 | 1011.8 |
| 20260906004725 | 87 | 70 | 2.6 | 5.2 | 0.00 | 0.00 | 0.00 | 75 | 1011.8 |
| 20260906003225 | 87 | 51 | 2.6 | 7.0 | 0.00 | 0.00 | 0.00 | 73 | 1011.9 |
| 20260906001725 | 88 | 89 | 3.5 | 6.1 | 0.00 | 0.00 | 0.00 | 71 | 1011.8 |
| 20260906000226 | 89 | 92 | 0.9 | 8.7 | 0.00 | 0.00 | 0.00 | 70 | 1011.7 |
| 20260905234725 | 89 | 101 | 5.2 | 9.6 | 0.00 | 0.00 | 0.00 | 70 | 1011.6 |
| 20260905233225 | 89 | 72 | 2.6 | 9.6 | 0.00 | 0.00 | 0.00 | 71 | 1011.4 |
| 20260905231725 | 89 | 41 | 8.7 | 9.6 | 0.00 | 0.00 | 0.00 | 69 | 1011.6 |
| 20260905230225 | 90 | 113 | 6.1 | 11.3 | 0.00 | 0.00 | 0.00 | 68 | 1011.4 |
| 20260905224725 | 90 | 70 | 4.3 | 7.8 | 0.00 | 0.00 | 0.00 | 68 | 1011.5 |
| 20260905223225 | 90 | 86 | 4.3 | 11.3 | 0.00 | 0.00 | 0.00 | 68 | 1011.4 |
| 20260905221725 | 90 | 45 | 9.6 | 9.6 | 0.00 | 0.00 | 0.00 | 67 | 1011.3 |
| 20260905220225 | 90 | 58 | 6.1 | 11.3 | 0.00 | 0.00 | 0.00 | 67 | 1011.4 |
| 20260905214725 | 91 | 75 | 5.2 | 9.6 | 0.00 | 0.00 | 0.00 | 67 | 1011.4 |
| 20260905213225 | 90 | 72 | 7.8 | 9.6 | 0.00 | 0.00 | 0.00 | 68 | 1011.6 |
| 20260905211725 | 90 | 59 | 4.3 | 9.6 | 0.00 | 0.00 | 0.00 | 67 | 1011.9 |
| 20260905210225 | 91 | 46 | 7.0 | 11.3 | 0.00 | 0.00 | 0.00 | 66 | 1011.9 |
| 20260905204725 | 90 | 140 | 6.1 | 13.9 | 0.00 | 0.00 | 0.00 | 66 | 1011.6 |
| 20260905203225 | 90 | 51 | 7.8 | 12.2 | 0.00 | 0.00 | 0.00 | 67 | 1011.6 |
| 20260905201725 | 90 | 84 | 6.1 | 13.0 | 0.00 | 0.00 | 0.00 | 70 | 1011.8 |
| 20260905200225 | 90 | 105 | 2.6 | 8.7 | 0.00 | 0.10 | 0.00 | 70 | 1012.0 |
| 20260905194725 | 90 | 90 | 3.5 | 8.7 | 0.00 | 0.10 | 0.00 | 71 | 1012.2 |
| 20260905193225 | 89 | 60 | 4.3 | 9.6 | 0.00 | 0.10 | 0.00 | 71 | 1012.3 |
| 20260905191725 | 90 | 45 | 6.1 | 7.8 | 0.00 | 0.10 | 0.00 | 72 | 1012.6 |
| 20260905190225 | 89 | 54 | 2.6 | 7.8 | 0.00 | 0.10 | 0.00 | 72 | 1013.1 |
| 20260905184725 | 88 | 15 | 5.2 | 7.0 | 0.00 | 0.10 | 0.00 | 73 | 1013.5 |
| 20260905183225 | 88 | 62 | 2.6 | 7.8 | 0.00 | 0.10 | 0.00 | 74 | 1013.5 |
| 20260905181725 | 87 | 47 | 3.5 | 7.8 | 0.00 | 0.10 | 0.00 | 76 | 1013.7 |
| 20260905180225 | 87 | 32 | 2.6 | 9.6 | 0.00 | 0.10 | 0.00 | 76 | 1013.5 |
| 20260905174725 | 87 | 12 | 5.2 | 9.6 | 0.00 | 0.10 | 0.00 | 77 | 1013.7 |
| 20260905173225 | 87 | 341 | 4.3 | 12.2 | 0.00 | 0.10 | 0.00 | 77 | 1013.7 |